DW9636 Weather Reports


Display with metric or nautical units.
time (UTC)temp
F
wind
direction
speed
MPH
gust
MPH
rain 1hr
in
rain 24hr
in
rain mn
in
humidity
%
barometer
mb
20260906191527 50 276 0.0 0.0 0.00 0.00 0.50 88 1013.3
20260906190024 48 276 0.0 0.0 0.00 0.00 0.50 90 1013.5
20260906184530 48 276 0.0 0.0 0.00 0.00 0.50 91 1013.4
20260906183029 47 276 0.0 0.0 0.00 0.00 0.50 92 1013.6
20260906181519 46 276 0.0 0.0 0.00 0.00 0.50 94 1013.6
20260906180016 45 276 0.0 0.0 0.00 0.00 0.50 94 1013.7
20260906174523 44 276 0.0 0.0 0.00 0.00 0.50 95 1013.6
20260906173015 44 277 0.0 0.0 0.00 0.00 0.50 94 1013.6
20260906171515 44 277 0.0 0.0 0.00 0.00 0.50 95 1013.6
20260906170016 43 277 0.0 0.0 0.00 0.00 0.50 95 1013.6
20260906164513 43 277 0.0 0.0 0.00 0.00 0.50 95 1013.6
20260906163018 43 277 0.0 0.0 0.00 0.00 0.50 96 1013.7
20260906161513 42 276 0.0 0.0 0.00 0.00 0.50 96 1013.7
20260906160013 42 277 0.0 0.0 0.00 0.00 0.50 96 1013.7
20260906154511 41 276 0.0 0.0 0.00 0.00 0.50 96 1013.7
20260906153022 40 277 0.0 0.0 0.00 0.00 0.50 96 1013.5
20260906151510 37 276 0.0 0.0 0.00 0.00 0.50 95 1013.5
20260906150010 36 276 0.0 0.0 0.00 0.00 0.50 95 1013.3
20260906144511 35 276 0.0 0.0 0.00 0.00 0.50 94 1013.3
20260906143012 35 276 0.0 0.0 0.00 0.00 0.50 94 1013.1
20260906141514 36 276 0.0 0.0 0.00 0.00 0.50 94 1013.1
20260906140003 37 276 0.0 0.0 0.00 0.00 0.49 94 1012.9
20260906134503 37 276 0.0 0.0 0.00 0.00 0.49 94 1012.9
20260906133059 37 276 0.0 0.0 0.00 0.00 0.49 93 1013.0
20260906131556 38 276 0.0 0.0 0.00 0.00 0.49 94 1012.8
20260906130123 39 276 0.0 0.0 0.00 0.00 0.49 94 1012.7
20260906124555 39 277 0.0 0.0 0.00 0.00 0.49 94 1012.7
20260906123051 39 276 0.0 0.0 0.00 0.00 0.48 94 1012.8
20260906121603 39 276 0.0 0.0 0.00 0.00 0.45 94 1012.9
20260906114548 40 276 0.0 0.0 0.00 0.00 0.40 94 1013.2
20260906113052 40 277 0.0 0.0 0.00 0.00 0.37 93 1013.1
20260906111544 41 276 0.0 0.0 0.00 0.00 0.34 93 1013.2
20260906110041 42 276 0.0 0.0 0.00 0.00 0.31 94 1013.3
20260906104539 42 280 0.0 0.0 0.00 0.00 0.28 94 1013.1
20260906103046 43 360 0.0 0.0 0.00 0.00 0.26 94 1013.3
20260906101535 43 360 0.0 0.0 0.00 0.00 0.23 94 1014.1
20260906100036 43 360 0.0 0.0 0.00 0.00 0.21 94 1014.4
20260906094532 43 360 0.0 0.0 0.00 0.00 0.19 94 1014.5
20260906093031 43 360 0.0 0.0 0.00 0.00 0.16 94 1014.5
20260906091530 43 360 0.0 0.0 0.00 0.00 0.13 93 1014.5
20260906090029 44 360 0.0 0.0 0.00 0.00 0.11 93 1014.4
20260906084527 44 360 0.0 0.0 0.00 0.00 0.09 93 1014.5
20260906083024 44 360 0.0 0.0 0.00 0.00 0.07 93 1014.4
20260906081525 45 355 0.0 0.0 0.00 0.00 0.05 92 1014.2
20260906080020 46 355 0.0 0.0 0.00 0.00 0.03 92 1014.0
20260906074517 46 15 0.0 0.0 0.00 0.00 0.02 92 1013.8
20260906073016 46 220 0.0 0.0 0.00 0.00 0.01 92 1013.9
20260906071512 46 281 0.0 0.0 0.00 0.00 0.00 92 1013.3
20260906070010 46 281 0.0 0.0 0.00 0.00 0.00 92 1012.8
20260906064508 46 281 0.0 0.0 0.00 0.00 0.02 91 1012.8
20260906063008 46 281 0.0 0.0 0.00 0.00 0.02 91 1012.5
20260906061519 46 281 0.0 0.0 0.00 0.00 0.02 91 1012.2
20260906060006 47 281 0.0 0.0 0.00 0.00 0.02 91 1012.7
20260906054521 47 281 0.0 0.0 0.00 0.00 0.02 91 1013.0
20260906053006 47 281 0.0 0.0 0.00 0.00 0.02 91 1013.2
20260906051505 47 281 0.0 0.0 0.00 0.00 0.02 91 1013.2
20260906050005 47 281 0.0 0.0 0.00 0.00 0.02 91 1013.4
20260906044507 47 281 0.0 0.0 0.00 0.00 0.02 91 1013.9
20260906043015 47 281 0.0 0.0 0.00 0.00 0.02 90 1014.0
20260906041504 47 281 0.0 0.0 0.00 0.00 0.02 89 1014.0
20260906040004 48 281 0.0 0.0 0.00 0.00 0.02 89 1013.9
20260906034502 48 281 0.0 0.0 0.00 0.00 0.02 88 1013.5
20260906033002 49 281 0.0 0.0 0.00 0.00 0.02 88 1013.2
20260906031501 50 281 0.0 0.0 0.00 0.00 0.02 86 1013.3
20260906030002 51 281 0.0 0.0 0.00 0.00 0.01 83 1013.4
20260906024601 54 281 0.0 0.0 0.00 0.00 0.00 74 1013.6
20260906023107 56 355 0.0 0.0 0.00 0.00 0.00 67 1013.5
20260906021559 57 355 0.0 0.0 0.00 0.00 0.00 66 1012.9
20260906014606 58 351 0.0 0.0 0.00 0.00 0.00 61 1012.8
20260906013058 59 350 0.0 0.0 0.00 0.00 0.00 59 1012.8
20260906011605 60 338 0.0 0.0 0.00 0.00 0.00 55 1012.8
20260906010057 62 342 0.0 0.0 0.00 0.00 0.00 51 1012.8
20260906004557 62 306 0.0 0.0 0.00 0.00 0.00 50 1012.6
20260906003056 63 325 0.0 0.0 0.00 0.00 0.00 47 1012.5
20260906001555 65 313 0.0 0.0 0.00 0.00 0.00 45 1012.6
20260906000054 65 198 0.0 0.0 0.00 0.00 0.00 33 1012.3
20260905234553 66 198 0.0 0.0 0.00 0.00 0.00 33 1012.2
20260905233052 66 158 0.0 0.0 0.00 0.00 0.00 32 1012.3
20260905231549 66 231 0.0 0.0 0.00 0.00 0.00 32 1012.5
20260905224530 66 171 0.0 0.0 0.00 0.00 0.00 33 1012.7
20260905223021 64 165 0.0 0.0 0.00 0.00 0.00 36 1013.2
20260905221621 66 180 0.0 0.0 0.00 0.00 0.00 35 1013.2
20260905220017 65 186 0.0 0.0 0.00 0.00 0.00 35 1013.3
20260905214514 63 218 0.0 0.0 0.00 0.00 0.00 39 1013.4
20260905213013 63 218 0.0 0.0 0.00 0.00 0.00 39 1013.5
20260905211512 64 227 1.0 0.0 0.00 0.00 0.00 40 1013.7
20260905210009 62 209 0.0 0.0 0.00 0.00 0.00 45 1013.8
20260905204510 63 194 0.0 0.0 0.00 0.00 0.00 45 1014.0
20260905203005 63 171 1.0 0.0 0.00 0.00 0.00 44 1014.0
20260905201503 62 192 0.0 0.0 0.00 0.00 0.00 46 1014.1
20260905200103 61 172 0.0 0.0 0.00 0.00 0.00 48 1014.3
20260905194557 61 169 0.0 0.0 0.00 0.00 0.00 51 1014.5
20260905193054 60 166 0.0 0.0 0.00 0.00 0.00 54 1014.8